Location: Chuathbaluk
(61.5726°N, 159.2454°W)
Time: 00:31:46
(UTC+00:00)

Explorer 7 - Pass Details

Date: 05 December 2021
Orbit: 483 x 674 km, 50.3° (Epoch: 21 January)

Event Time Altitude Azimuth Distance (km) Brightness Sun altitude
Rises 18:12:50 0° 238° (WSW) 2,758 10.1 -8.1°
Reaches altitude 10° 18:15:46 10° 218° (SW) 1,820 9.4 -7.8°
Maximum altitude 18:18:25 17° 178° (S) 1,404 9.4 -7.6°
Drops below altitude 10° 18:21:00 10° 137° (SE) 1,752 11.0 -7.3°
Sets 18:23:45 0° 116° (ESE) 2,607 12.5 -7.1°
